Wind_Speed
34 33 33 33 33 33 33 33 33 33 32 32 32 32 31 30 30 31 31 31 31 31 31 31 31 31 31 32 32 32 33 32 32 33 33 34 34 35 35 35 35 36 36
36 36 35 35 35 35 34 34 34 34 34 34 34 33 33 33 32 32 33 33 33 33 32 33 33 33 33 34 34 34 34 34 34 35 35 36 36 36 36 36 37 37 38
38 38 37 37 37 37 36 35 35 35 35 35 35 35 35 35 34 34 35 34 34 34 34 34 34 35 35 36 36 36 36 36 36 37 37 37 38 38 38 38 39 39 39
39 39 39 39 39 39 38 38 38 37 37 37 37 38 37 36 37 37 36 36 35 35 36 36 36 36 37 38 38 38 38 38 38 39 39 39 40 40 40 40 41 41 41
41 40 40 40 41 41 41 41 40 40 39 39 39 39 39 39 39 39 38 38 38 38 38 38 38 39 39 40 40 40 40 40 40 41 41 42 42 42 43 43 43 43 42
41 42 41 41 42 42 43 43 43 42 41 41 40 41 41 41 41 40 40 40 40 41 41 40 40 41 41 42 42 42 42 42 42 42 43 43 43 44 44 45 45 44 44
43 43 43 43 43 44 44 44 44 44 43 43 42 41 41 41 41 41 41 42 42 42 43 43 43 43 43 43 44 44 44 44 44 44 44 44 44 45 45 46 46 46 45
45 45 45 45 45 45 45 46 46 45 45 44 44 42 42 42 43 42 42 43 44 45 45 45 45 45 45 45 44 45 45 46 46 46 46 45 45 45 46 46 46 46 46
46 46 46 46 47 46 46 46 46 46 45 45 45 44 44 44 45 44 44 45 45 46 46 46 46 46 46 46 46 46 46 46 46 46 46 46 46 46 46 46 46 46 46
47 47 47 47 46 46 47 47 46 47 47 47 46 45 46 46 47 46 45 46 47 46 47 47 47 48 48 47 47 47 48 48 47 46 45 46 45 45 46 46 46 46 46
48 48 48 47 47 47 47 47 47 47 48 48 48 48 48 48 47 48 47 47 48 48 48 48 49 49 49 49 49 48 47 47 46 45 45 45 45 46 46 46 46 46 46
47 47 47 47 48 48 47 47 48 48 48 48 49 49 49 49 48 49 49 49 48 49 49 50 50 50 49 49 49 48 47 47 46 47 47 46 45 45 45 45 45 45 44
47 47 47 47 47 48 48 48 48 49 49 49 48 48 49 49 49 49 49 49 49 49 50 50 49 49 49 49 49 48 48 48 47 47 47 46 46 46 45 45 44 43 42
47 47 47 46 46 47 48 48 48 49 49 49 49 48 48 48 48 48 48 49 49 48 48 48 48 48 48 49 49 48 48 48 47 46 46 46 46 45 44 43 42 42 42
47 47 47 46 46 47 48 48 49 48 49 49 50 50 49 49 49 48 48 48 49 48 46 46 47 48 49 49 49 49 49 48 47 46 45 45 44 44 43 42 41 42 42
47 47 47 47 47 47 47 48 49 49 49 49 50 50 49 48 48 48 49 49 49 49 47 45 47 48 48 48 48 48 47 47 46 44 43 43 43 42 42 42 42 42 42
46 46 47 47 47 47 47 48 48 48 48 49 49 48 49 49 49 49 50 49 49 49 48 46 46 47 47 47 47 47 46 45 45 43 42 42 42 42 42 42 42 41 40
47 46 47 48 48 48 48 49 49 49 49 49 49 49 49 49 49 49 49 49 49 49 48 47 46 47 47 46 45 45 44 43 43 42 42 41 41 41 41 41 40 39 39
45 45 46 47 47 47 47 48 49 48 47 46 47 48 48 48 48 47 47 47 48 47 47 47 46 46 46 44 44 43 42 42 41 41 40 40 40 39 39 38 38 38 39
43 44 45 45 46 46 46 46 46 46 46 46 45 46 46 46 45 45 45 45 45 45 45 46 45 44 44 43 43 41 40 40 39 38 39 40 39 38 36 36 37 37 38
42 42 42 43 43 44 44 44 43 44 44 44 43 43 44 45 45 44 44 44 44 43 43 43 42 42 41 40 40 39 39 38 38 37 37 38 38 37 36 35 35 36 36
39 39 39 40 41 42 42 42 42 43 42 42 42 42 43 44 43 43 43 43 43 42 41 40 40 40 39 38 38 38 38 37 37 36 36 36 36 35 34 34 35 36 36
36 36 37 37 38 39 40 40 41 41 41 40 40 40 42 41 41 42 41 41 40 40 39 39 39 38 38 37 36 36 37 36 35 35 34 34 34 33 33 33 34 35 34
34 34 35 36 36 36 37 38 38 39 38 38 38 39 39 38 38 39 39 38 38 38 37 36 35 35 34 34 35 35 35 34 33 34 34 33 33 33 32 31 31 31 30
31 32 33 34 34 33 34 35 35 36 37 37 37 37 37 36 36 35 35 35 35 34 33 33 33 33 33 33 33 33 33 33 32 32 32 31 30 30 30 30 29 28 28
29 30 31 32 32 32 32 33 34 34 35 35 35 34 34 34 34 34 33 33 33 32 32 32 32 33 32 32 32 32 32 32 31 30 29 29 29 29 28 28 27 27 27
Wind_Direction
256 255 257 257 257 258 259 259 261 262 263 264 266 267 269 269 270 270 271 272 273 275 276 276 277 278 279 280 282 283 284 284 285 285 285 286 286 287 287 288 289 288 288
256 256 257 257 257 258 258 259 261 262 263 264 265 267 268 269 270 270 271 273 273 274 275 276 277 278 279 281 282 282 283 284 284 284 284 285 286 286 286 287 288 288 288
256 256 256 256 257 257 258 259 261 262 264 264 265 267 268 269 269 271 271 272 272 273 274 275 276 278 280 282 282 282 283 284 284 284 284 285 286 286 286 286 287 287 287
256 255 256 256 257 258 258 259 261 263 265 265 266 267 267 268 269 271 272 272 271 272 274 275 276 278 280 282 282 282 282 283 284 284 285 285 285 286 286 286 286 286 287
257 256 256 257 257 258 258 260 262 263 265 266 266 267 267 268 269 270 271 271 271 272 273 275 276 278 279 281 282 281 282 282 283 284 284 285 285 285 285 285 286 286 286
258 258 257 258 258 259 260 261 263 264 265 266 266 267 267 268 269 270 271 271 272 273 273 274 276 277 278 279 280 281 281 282 283 284 285 285 285 285 285 285 286 286 286
257 258 258 258 259 261 262 262 263 265 266 265 266 267 267 268 269 270 271 271 272 273 274 275 275 276 277 278 279 280 281 281 282 283 284 284 284 284 284 285 285 286 286
257 258 259 259 260 261 263 263 262 264 265 266 266 267 268 268 269 270 271 272 272 272 273 274 274 275 277 278 279 280 281 281 281 282 283 283 283 283 283 284 285 286 285
258 258 258 259 260 261 263 263 264 264 265 267 267 268 269 270 269 269 270 272 273 272 272 273 275 275 277 279 279 280 280 280 281 282 281 281 282 282 284 284 285 285 284
259 259 259 259 260 262 263 263 264 264 265 268 268 269 270 272 271 270 270 270 272 272 273 273 273 275 277 278 279 280 281 281 281 282 282 282 281 282 283 284 285 284 284
259 259 259 260 261 262 262 263 264 265 266 267 268 268 269 271 272 271 270 271 271 271 272 273 275 275 276 276 278 279 280 281 280 281 282 283 283 283 283 284 284 284 284
259 260 260 261 262 261 262 264 264 265 265 267 268 269 269 270 271 271 271 271 271 271 272 274 276 275 276 276 277 279 280 280 280 281 282 283 284 284 284 283 284 284 283
259 260 261 261 262 262 262 263 264 265 265 266 267 269 269 270 270 271 272 272 272 273 274 274 274 275 277 277 277 279 280 280 280 281 281 282 283 283 283 282 283 284 283
260 261 262 261 262 262 262 263 264 264 265 266 267 268 269 269 270 271 272 272 272 273 273 273 274 274 275 276 278 279 280 280 280 282 281 281 282 282 283 282 282 281 281
261 261 261 261 261 262 262 263 263 265 266 267 267 269 270 270 271 272 273 273 273 273 274 274 274 275 276 276 277 278 279 279 280 281 281 280 280 281 282 281 281 281 280
260 261 261 261 261 261 262 263 264 265 266 267 268 268 269 270 271 273 273 274 274 274 274 275 275 276 277 278 278 278 278 279 279 280 280 281 281 281 281 280 280 280 280
260 260 260 261 261 261 262 264 264 265 265 266 267 268 268 269 270 272 273 273 274 274 274 274 275 276 277 278 278 279 278 277 277 278 280 280 281 281 280 280 280 280 280
261 260 261 261 261 262 263 264 264 265 266 267 267 268 269 269 270 271 272 273 274 274 274 275 275 276 278 278 278 278 279 278 278 278 278 279 281 281 280 280 279 279 279
262 262 262 262 262 262 263 264 265 264 265 266 266 268 269 270 270 271 272 273 273 274 275 274 274 275 276 277 278 279 279 279 279 279 278 279 281 282 282 279 278 279 280
264 264 263 262 262 262 262 263 263 264 264 266 267 268 269 269 271 271 271 272 272 273 275 274 274 275 276 277 278 278 279 280 279 279 279 280 281 282 283 281 280 280 281
264 264 263 263 262 262 262 263 264 264 265 266 268 269 269 270 270 269 269 270 272 273 274 274 274 274 275 276 276 277 278 278 278 279 280 281 281 282 281 282 282 282 282
264 262 262 262 262 263 263 263 263 264 265 266 267 269 270 271 269 268 269 271 271 272 273 273 274 274 274 275 275 276 277 276 277 278 279 281 281 281 281 281 283 284 284
263 261 262 262 263 263 263 263 263 264 265 266 268 269 270 270 269 267 269 271 272 272 271 273 274 274 274 274 274 275 276 277 277 277 277 279 280 280 280 281 283 284 285
264 262 262 262 263 264 265 264 263 263 264 266 267 268 268 269 269 268 269 269 269 270 271 273 273 273 273 274 274 275 276 276 277 277 277 278 280 281 281 282 285 285 285
265 264 265 264 264 264 264 265 265 264 265 266 267 268 268 267 268 267 267 267 267 267 269 271 273 273 274 275 276 275 276 276 278 279 278 277 278 280 281 282 284 285 286
268 268 267 265 265 264 264 266 265 265 267 267 268 269 269 267 265 266 267 267 267 268 270 272 274 275 275 274 275 276 276 275 276 277 276 276 278 279 281 281 284 286 287
Height
5790 5791 5792 5793 5793 5794 5795 5796 5797 5797 5797 5798 5798 5798 5797 5797 5797 5796 5796 5796 5795 5794 5793 5792 5791 5790 5789 5788 5786 5785 5783 5781 5779 5777 5775 5773 5771 5768 5766 5764 5761 5759 5756
5782 5783 5784 5785 5786 5787 5788 5788 5789 5790 5790 5790 5790 5790 5790 5790 5789 5789 5788 5788 5787 5787 5786 5785 5784 5783 5782 5780 5779 5777 5775 5773 5771 5769 5767 5765 5762 5760 5758 5755 5752 5750 5747
5774 5775 5776 5777 5778 5779 5780 5780 5781 5782 5782 5782 5783 5783 5782 5782 5782 5781 5780 5780 5779 5779 5778 5777 5776 5775 5774 5772 5770 5769 5767 5765 5763 5761 5758 5756 5754 5751 5748 5746 5743 5741 5738
5765 5766 5767 5768 5769 5770 5771 5772 5773 5774 5774 5774 5774 5774 5774 5774 5773 5773 5772 5771 5771 5770 5769 5768 5767 5766 5765 5763 5762 5760 5758 5756 5754 5751 5749 5747 5744 5742 5739 5736 5734 5731 5728
5756 5757 5758 5759 5760 5761 5763 5764 5764 5765 5765 5765 5766 5766 5765 5765 5765 5764 5764 5763 5762 5761 5761 5759 5758 5757 5756 5754 5752 5750 5748 5746 5744 5741 5739 5736 5734 5731 5729 5726 5723 5721 5717
5746 5748 5749 5750 5751 5752 5753 5754 5755 5756 5756 5756 5756 5756 5756 5756 5756 5755 5754 5754 5753 5752 5751 5750 5749 5747 5746 5744 5742 5740 5738 5736 5733 5731 5728 5726 5723 5720 5717 5715 5712 5709 5707
5737 5738 5739 5741 5742 5743 5743 5744 5745 5746 5746 5746 5747 5747 5747 5746 5746 5745 5745 5744 5743 5742 5741 5739 5738 5737 5735 5733 5732 5729 5727 5725 5722 5719 5717 5714 5712 5709 5706 5704 5701 5698 5695
5726 5727 5729 5730 5731 5732 5733 5733 5734 5735 5736 5736 5736 5736 5736 5737 5736 5735 5735 5734 5733 5731 5730 5728 5727 5725 5724 5722 5720 5718 5716 5713 5711 5708 5705 5702 5700 5697 5694 5692 5689 5686 5683
5714 5716 5717 5719 5720 5721 5722 5723 5723 5724 5725 5725 5724 5725 5725 5725 5725 5725 5724 5723 5721 5719 5718 5717 5715 5714 5712 5710 5708 5706 5704 5701 5698 5696 5693 5690 5688 5685 5682 5680 5677 5674 5671
5703 5704 5706 5707 5708 5709 5710 5711 5712 5712 5713 5713 5713 5713 5713 5712 5712 5713 5713 5711 5709 5707 5706 5705 5704 5702 5700 5698 5696 5694 5692 5689 5686 5683 5681 5678 5675 5673 5670 5667 5665 5662 5659
5691 5693 5694 5695 5696 5697 5698 5699 5700 5700 5701 5701 5701 5701 5701 5700 5699 5699 5700 5700 5698 5696 5695 5693 5691 5690 5688 5686 5684 5681 5679 5676 5674 5671 5668 5666 5663 5660 5658 5655 5652 5649 5646
5679 5681 5682 5683 5684 5685 5686 5687 5687 5688 5688 5688 5688 5688 5688 5688 5687 5686 5686 5686 5685 5684 5682 5681 5679 5677 5675 5673 5671 5669 5666 5664 5661 5658 5656 5653 5650 5648 5645 5642 5640 5637 5634
5667 5669 5670 5671 5671 5672 5673 5674 5675 5675 5675 5675 5675 5675 5675 5675 5674 5673 5672 5672 5671 5671 5669 5668 5666 5664 5661 5659 5658 5655 5653 5651 5648 5645 5643 5641 5638 5636 5633 5631 5628 5625 5623
5655 5656 5658 5659 5659 5660 5660 5661 5661 5662 5662 5663 5663 5663 5663 5662 5661 5660 5659 5658 5658 5658 5656 5655 5653 5650 5648 5646 5644 5642 5641 5638 5636 5633 5631 5629 5626 5624 5621 5619 5617 5614 5612
5642 5643 5645 5646 5647 5647 5648 5648 5649 5649 5650 5650 5650 5650 5650 5650 5649 5647 5646 5645 5644 5644 5644 5642 5640 5637 5635 5633 5631 5629 5627 5625 5623 5621 5618 5616 5614 5612 5610 5608 5605 5603 5601
5629 5630 5632 5633 5634 5634 5635 5636 5636 5637 5637 5637 5637 5637 5637 5637 5636 5635 5634 5632 5631 5630 5630 5630 5627 5625 5623 5621 5618 5616 5614 5613 5611 5609 5606 5604 5602 5600 5598 5596 5594 5592 5590
5616 5618 5619 5619 5620 5621 5622 5623 5623 5624 5624 5624 5624 5624 5624 5624 5623 5622 5621 5620 5619 5617 5617 5617 5615 5612 5610 5608 5606 5603 5602 5600 5599 5597 5595 5593 5591 5589 5587 5585 5583 5581 5579
5603 5604 5605 5606 5607 5608 5609 5609 5610 5610 5611 5611 5611 5611 5611 5610 5610 5609 5608 5607 5606 5605 5604 5604 5602 5600 5598 5595 5594 5592 5590 5589 5587 5586 5584 5582 5580 5578 5576 5573 5571 5570 5569
5591 5591 5592 5593 5594 5595 5595 5596 5596 5597 5597 5597 5598 5598 5598 5597 5597 5596 5595 5594 5593 5592 5591 5590 5590 5588 5586 5584 5583 5581 5579 5578 5576 5575 5573 5571 5570 5567 5565 5563 5561 5560 5558
5578 5579 5579 5580 5581 5582 5582 5583 5583 5584 5584 5585 5584 5585 5585 5584 5584 5583 5582 5582 5581 5580 5578 5577 5577 5576 5574 5573 5571 5570 5569 5567 5566 5565 5563 5562 5560 5558 5555 5553 5552 5550 5548
5565 5566 5567 5568 5569 5570 5570 5571 5571 5571 5572 5572 5572 5572 5572 5572 5572 5571 5571 5570 5569 5568 5567 5566 5565 5564 5563 5562 5561 5560 5559 5557 5556 5555 5553 5552 5550 5548 5546 5544 5542 5540 5538
5554 5555 5555 5556 5557 5558 5558 5558 5559 5559 5560 5560 5560 5560 5560 5560 5559 5559 5559 5558 5557 5557 5556 5555 5555 5554 5553 5552 5551 5550 5549 5548 5547 5546 5544 5542 5540 5539 5537 5535 5533 5531 5528
5544 5544 5545 5546 5546 5547 5547 5547 5547 5547 5548 5548 5548 5548 5549 5548 5548 5548 5548 5547 5547 5546 5545 5545 5544 5544 5543 5543 5542 5541 5539 5538 5537 5536 5534 5533 5531 5530 5528 5526 5524 5522 5519
5534 5535 5535 5535 5536 5536 5536 5535 5536 5536 5537 5537 5538 5538 5538 5538 5538 5537 5537 5537 5537 5536 5536 5535 5535 5534 5533 5533 5532 5531 5530 5529 5528 5526 5525 5524 5523 5522 5520 5518 5515 5513 5511
5525 5525 5526 5526 5526 5526 5526 5526 5526 5526 5527 5527 5528 5528 5528 5528 5528 5527 5527 5528 5527 5527 5526 5526 5525 5525 5524 5523 5523 5522 5520 5520 5519 5518 5516 5515 5515 5513 5512 5510 5508 5506 5503
5516 5516 5516 5516 5516 5517 5517 5517 5516 5517 5517 5518 5518 5518 5518 5518 5518 5517 5518 5518 5518 5518 5517 5517 5517 5516 5515 5514 5513 5512 5512 5511 5510 5509 5508 5507 5506 5505 5504 5502 5500 5498 5496